{"data":{"norad_id":59687,"intl_designator":"2024-086F","name":"STARLINK-32089","alt_names":[],"object_type":"PAYLOAD","status":"ACTIVE","operator":null,"country":"US","launch_date":"2024-05-08","launch_site_code":"AFETR","launch_vehicle":null,"mission":null,"orbit_class":"UNKNOWN","rcs_meters":null,"size_class":null,"mass_kg":null,"dimensions":null,"purposes":["comms"],"wikipedia_slug":null,"has_3d_model":false,"image_url":null,"decayed_at":null,"tle_current":{"epoch":"2026-09-21T15:34:00.682464Z","epoch_age_seconds":72148,"freshness":"FRESH","line1":"1 59687U 24086F   26264.64861901  .00000146  00000+0  14838-4 0  9998","line2":"2 59687  43.0017  33.0430 0001332 271.5810  88.4889 15.27575990134089","mean_motion":15.2757599,"eccentricity":0.0001332,"inclination_deg":43.0017,"raan_deg":33.043,"arg_perigee_deg":271.581,"mean_anomaly_deg":88.4889,"bstar":1.4838e-5,"rev_number":13408,"period_min":94.266996170842,"perigee_km":482.14719186113,"apogee_km":483.97501503589,"semimajor_km":6861.1981034485,"source":"CELESTRAK","updated_at":"2026-09-22T09:00:49.032562Z"}}}